This is the latest recevied weather packets stored in our database for station/object OE6JUE. If no packets are shown the sender has not sent any weather packets the latest 10 day(s).
| Time | Temp. | Humidity | Pressure | Rain* | Wind** | Luminosity | Snow |
|---|---|---|---|---|---|---|---|
| 1788589737 | 19.44° C | 78% | 1018.2 hPa | 0 mm | - | - | - |
| 1788589438 | 20° C | 79% | 1018.1 hPa | 0 mm | - | - | - |
| 1788589137 | 20° C | 80% | 1018 hPa | 0 mm | - | - | - |
| 1788588838 | 19.44° C | 80% | 1018.1 hPa | 0 mm | - | - | - |
| 1788588538 | 19.44° C | 80% | 1018.1 hPa | 0 mm | - | - | - |
| 1788588239 | 19.44° C | 80% | 1018 hPa | 0 mm | - | - | - |
| 1788587938 | 19.44° C | 80% | 1018 hPa | 0 mm | - | - | - |
| 1788587637 | 19.44° C | 80% | 1017.8 hPa | 0 mm | - | - | - |
| 1788587337 | 19.44° C | 81% | 1017.8 hPa | 0 mm | - | - | - |
| 1788587037 | 19.44° C | 82% | 1017.6 hPa | 0 mm | - | - | - |
| 1788586738 | 20° C | 85% | 1017.5 hPa | 0 mm | - | - | - |
| 1788586438 | 20° C | 85% | 1017.5 hPa | 0 mm | - | - | - |
| 1788586137 | 18.89° C | 91% | 1017.4 hPa | 0 mm | - | - | - |
| 1788585838 | 17.78° C | 91% | 1017.4 hPa | 0 mm | - | - | - |
| 1788585538 | 16.67° C | 93% | 1017.4 hPa | 0 mm | - | - | - |
| 1788585237 | 16.67° C | 93% | 1017.4 hPa | 0 mm | - | - | - |
| 1788584938 | 16.11° C | 92% | 1017.2 hPa | 0 mm | - | - | - |
| 1788584638 | 16.11° C | 92% | 1017.2 hPa | 0 mm | - | - | - |
| 1788584337 | 16.11° C | 93% | 1017.2 hPa | 0 mm | - | - | - |
| 1788584038 | 15.56° C | 93% | 1017.2 hPa | 0 mm | - | - | - |
| 1788583737 | 15.56° C | 93% | 1017.2 hPa | 0 mm | - | - | - |
| 1788583438 | 15.56° C | 93% | 1017 hPa | 0 mm | - | - | - |
| 1788583137 | 15.56° C | 93% | 1017 hPa | 0 mm | - | - | - |
| 1788582837 | 15.56° C | 93% | 1016.8 hPa | 0 mm | - | - | - |
| 1788582538 | 15.56° C | 93% | 1016.9 hPa | 0 mm | - | - | - |
* Rain latest hour (hover to see other rain measurements)
** Current wind speed in m/s (hover to see current wind gust speed)